Weather History for KDRO - October, 2012

Change the Weather History Date:

Tuesday, October 23, 2012

  Actual Average Record
Temperature  
Mean Temperature 51 °F 44 °F  
Max Temperature 68 °F 60 °F 77 °F (2003)
Min Temperature 33 °F 29 °F 15 °F (2008)
Degree Days  
Heating Degree Days 14 21  
Month to date heating degree days 321 382  
Since 1 July heating degree days 460 606  
Cooling Degree Days 0 0  
Month to date cooling degree days 0 0  
Year to date cooling degree days 477 243  
Moisture  
Dew Point 25 °F    
Average Humidity 42    
Maximum Humidity 64    
Minimum Humidity 19    
Precipitation  
Precipitation 0.00 in 0.03 in 0.83 in (2000)
Month to date precipitation 0.10 1.04  
Year to date precipitation 5.81 12.92  
Sea Level Pressure  
Sea Level Pressure 29.92 in    
Wind  
Wind Speed 6 mph (East)    
Max Wind Speed 18 mph    
Max Gust Speed 29 mph    
Visibility 10 miles    
Events      
T = Trace of Precipitation, MM = Missing Value Source: NWS Daily Summary

Daily Weather History Graph

Daily Weather History Graph

Search for Another Location

Airport or City:

Trip Planner

Search our weather history database for the weather conditions in past years. The results will help you decide how hot, cold, wet, or windy it might be!

Date:

Astronomy

Oct. 23, 2012 Rise Set
Actual Time 7:26 AM MDT 6:23 PM MDT
Civil Twilight 7:00 AM MDT 6:49 PM MDT
Nautical Twilight 6:29 AM MDT 7:19 PM MDT
Astronomical Twilight 5:59 AM MDT 7:50 PM MDT
Moon 3:01 PM MDT 1:30 AM MDT
Length of Visible Light 11h 49m
Length of Day
10h 56m
Waxing Gibbous, 67% of the Moon is Illuminated
Oct 23
Waxing Gibbous
Oct 29
Full
Nov 6
Last Quarter
Nov 13
New
Nov 20
First Quarter

Hourly Weather History & Observations

Time (MDT) Temp. Windchill Dew Point Humidity Pressure Visibility Wind Dir Wind Speed Gust Speed Precip Events Conditions
12:53 AM 36.0 °F - 23.0 °F 59% 29.96 in 10.0 mi Calm Calm - N/A   Scattered Clouds
1:53 AM 37.0 °F 33.3 °F 23.0 °F 57% 29.94 in 10.0 mi ENE 4.6 mph - N/A   Mostly Cloudy
2:53 AM 37.0 °F 34.5 °F 24.1 °F 59% 29.94 in 10.0 mi NE 3.5 mph - N/A   Overcast
3:53 AM 37.9 °F 33.5 °F 24.1 °F 57% 29.92 in 10.0 mi NE 5.8 mph - N/A   Clear
4:53 AM 37.9 °F 35.5 °F 26.1 °F 62% 29.93 in 10.0 mi ENE 3.5 mph - N/A   Clear
5:53 AM 37.9 °F 34.4 °F 26.1 °F 62% 29.96 in 10.0 mi NE 4.6 mph - N/A   Clear
6:53 AM 37.0 °F 33.3 °F 26.1 °F 65% 29.99 in 10.0 mi NNE 4.6 mph - N/A   Clear
7:53 AM 35.1 °F 29.3 °F 25.0 °F 67% 30.05 in 10.0 mi NNE 6.9 mph - N/A   Clear
8:53 AM 44.1 °F 42.5 °F 28.0 °F 53% 30.04 in 10.0 mi East 3.5 mph - N/A   Scattered Clouds
9:53 AM 53.1 °F - 32.0 °F 45% 30.00 in 10.0 mi ESE 8.1 mph - N/A   Scattered Clouds
12:53 PM 63.0 °F - 28.0 °F 27% 29.95 in 10.0 mi South 4.6 mph - N/A   Mostly Cloudy
1:53 PM 64.0 °F - 28.0 °F 26% 29.90 in 10.0 mi South 12.7 mph 19.6 mph N/A   Mostly Cloudy
2:53 PM 66.9 °F - 26.1 °F 21% 29.86 in 10.0 mi SSW 18.4 mph 24.2 mph N/A   Clear
3:53 PM 66.0 °F - 23.0 °F 20% 29.86 in 10.0 mi SSW 5.8 mph 23.0 mph N/A   Clear
4:53 PM 66.9 °F - 24.1 °F 20% 29.83 in 10.0 mi WSW 10.4 mph - N/A   Clear
5:53 PM 64.9 °F - 24.1 °F 21% 29.83 in 10.0 mi West 9.2 mph - N/A   Clear
6:53 PM 60.1 °F - 24.1 °F 25% 29.86 in 10.0 mi WSW 3.5 mph - N/A   Clear
7:53 PM 50.0 °F - 23.0 °F 35% 29.94 in 10.0 mi East 3.5 mph - N/A   Clear
8:53 PM 50.0 °F - 25.0 °F 38% 29.91 in 10.0 mi East 4.6 mph - N/A   Clear
9:53 PM 48.9 °F - 23.0 °F 36% 29.88 in 10.0 mi WNW 3.5 mph - N/A   Clear
10:53 PM 50.0 °F - 23.0 °F 35% 29.87 in 10.0 mi West 3.5 mph - N/A   Clear
11:53 PM 45.0 °F 42.6 °F 23.0 °F 42% 29.88 in 10.0 mi NE 4.6 mph - N/A   Clear